CAPE
22 50 76 289 296 152 182 190 166 163 194 256 323 547 576 628 734 833 914 975 1028 1037 1034 1036 1050 1079 1160 1207 1232 1237 1250 1226 1146 1096 1056 1067 1073 1080 1110 1169 1233 1290 1392 1604 1741 1901 2080 2119 2176 2234 2294 2356 2387 2425 2424 2475 2608 2316 1575 1287 834 116 63
0 6 24 38 61 94 114 130 104 112 142 188 257 327 439 572 628 730 835 915 988 1015 1015 1014 1020 1056 1140 1191 1197 1200 1216 1228 1194 1171 1128 1101 1096 1071 1061 1096 1141 1205 1265 1472 1649 1811 1965 2079 2164 2207 2269 2283 2358 2406 2416 2529 2637 2126 1284 910 526 45 44
0 0 0 8 32 59 94 81 70 75 98 143 216 266 324 429 572 631 744 828 897 952 975 996 1013 1037 1112 1166 1167 1174 1180 1206 1207 1190 1168 1156 1136 1104 1080 1075 1116 1186 1234 1377 1620 1793 1925 2011 2104 2161 2228 2268 2290 2331 2439 2585 2561 1876 1207 631 233 49 17
0 0 0 0 6 32 55 68 86 62 66 97 172 248 293 356 394 562 660 741 819 863 936 977 998 1012 1076 1147 1174 1177 1168 1181 1203 1205 1200 1182 1157 1135 1112 1118 1120 1240 1284 1371 1599 1786 1916 1962 2041 2111 2191 2220 2226 2257 2444 2590 2351 1747 1167 585 479 441 416
0 0 0 0 0 0 5 34 58 60 61 66 106 240 278 312 337 425 570 679 752 817 875 940 961 996 1105 1125 1180 1189 1187 1183 1194 1205 1209 1198 1177 1150 1133 1137 1142 1280 1350 1390 1583 1792 1830 1928 1997 2045 2155 2180 2203 2266 2472 2515 2183 1632 1090 769 680 587 474
0 0 0 0 0 0 0 3 27 42 54 55 69 136 216 264 299 361 500 671 716 768 819 874 931 1069 1125 1146 1184 1212 1196 1194 1190 1197 1207 1208 1187 1181 1156 1159 1193 1298 1326 1412 1562 1685 1765 1850 1920 1993 2082 2086 2194 2319 2453 2430 1996 1520 1099 956 900 838 655
0 0 0 0 0 0 0 0 1 17 32 48 46 82 189 231 299 354 447 580 716 762 789 841 893 947 1131 1168 1206 1281 1242 1224 1217 1220 1213 1222 1209 1196 1201 1231 1266 1302 1355 1379 1477 1569 1688 1782 1835 1903 1966 2019 2068 2225 2407 2326 1839 1447 1178 1091 1045 986 868
0 0 0 0 0 0 0 0 0 0 5 16 19 30 113 213 288 333 441 532 680 781 813 827 869 911 1016 1224 1240 1268 1294 1281 1264 1256 1242 1235 1236 1234 1269 1324 1359 1387 1408 1404 1402 1487 1615 1699 1793 1847 1886 1935 2020 2146 2258 2176 1794 1390 1224 1169 1129 1077 1007
0 0 0 0 0 0 0 0 0 0 0 0 13 36 56 186 298 370 431 518 642 778 859 871 898 935 1038 1184 1302 1349 1342 1342 1332 1323 1311 1299 1291 1292 1320 1367 1416 1442 1449 1428 1384 1446 1526 1630 1708 1782 1817 1850 1898 1983 2036 1989 1777 1450 1205 1152 1118 1072 1088
0 0 0 0 0 0 0 0 0 0 0 0 1 26 50 146 297 381 445 519 630 771 877 920 937 983 1072 1133 1264 1331 1391 1411 1424 1416 1415 1396 1375 1371 1378 1407 1442 1472 1488 1478 1441 1442 1496 1567 1627 1674 1703 1736 1772 1826 1854 1834 1732 1553 1338 1170 1103 1088 1098
0 0 0 0 0 0 0 0 0 0 0 0 0 5 41 101 235 366 469 542 636 757 868 964 1004 1031 1102 1182 1243 1304 1386 1458 1490 1509 1509 1500 1481 1472 1458 1467 1487 1504 1520 1543 1554 1525 1537 1563 1597 1621 1634 1661 1691 1727 1762 1780 1754 1641 1464 1330 1208 1133 1122
0 0 0 0 0 0 0 0 0 0 0 0 0 0 27 88 193 323 457 585 670 753 845 989 1076 1119 1176 1255 1322 1395 1383 1448 1500 1544 1572 1578 1573 1563 1546 1552 1565 1563 1570 1576 1600 1625 1617 1617 1626 1637 1649 1639 1630 1654 1703 1741 1734 1666 1528 1418 1304 1204 1153
0 0 0 0 0 0 0 0 0 0 0 0 0 0 1 46 145 284 467 601 688 762 852 1000 1138 1231 1262 1327 1402 1501 1465 1462 1488 1544 1592 1628 1650 1632 1622 1636 1663 1660 1660 1642 1657 1660 1648 1628 1626 1625 1621 1619 1615 1636 1706 1744 1708 1628 1528 1453 1358 1254 1180
0 0 0 0 0 0 0 0 0 0 0 0 0 0 0 23 122 276 454 598 706 798 880 1015 1202 1296 1354 1420 1519 1577 1580 1579 1548 1554 1582 1637 1686 1705 1706 1728 1739 1754 1753 1753 1738 1735 1694 1662 1644 1652 1636 1623 1622 1655 1690 1717 1690 1626 1538 1460 1387 1292 1233
0 0 0 0 0 0 0 0 0 0 0 0 0 0 0 17 109 271 458 598 724 828 934 1092 1219 1373 1452 1498 1592 1644 1695 1742 1741 1640 1634 1732 1685 1738 1780 1798 1816 1824 1832 1837 1834 1807 1785 1717 1708 1684 1675 1668 1656 1661 1654 1668 1667 1639 1569 1476 1395 1328 1302
0 0 0 0 0 0 0 0 0 0 0 0 0 0 0 14 124 286 485 632 766 880 975 1100 1286 1420 1521 1582 1628 1683 1739 1809 1862 1874 1850 1820 1800 1763 1790 1833 1850 1870 1888 1898 1894 1878 1850 1788 1749 1724 1687 1654 1652 1641 1650 1657 1652 1634 1580 1497 1418 1375 1376
0 0 0 0 0 0 0 0 0 0 0 0 0 0 2 24 113 283 469 636 788 918 1024 1153 1352 1444 1553 1676 1691 1726 1785 1848 1912 1962 1970 1950 1835 1807 1808 1829 1861 1886 1921 1922 1923 1898 1884 1828 1792 1733 1714 1680 1637 1628 1614 1635 1638 1623 1606 1535 1466 1440 1463
0 0 0 0 0 0 0 0 0 0 0 0 6 16 24 69 141 308 471 653 811 944 1038 1174 1361 1479 1621 1710 1754 1787 1846 1895 1948 2004 2044 2020 1958 1931 1897 1891 1897 1914 1929 1942 1928 1908 1887 1854 1806 1769 1736 1712 1670 1660 1609 1591 1617 1643 1612 1567 1538 1537 1566
0 0 0 0 0 0 0 0 0 0 5 9 28 64 86 148 204 354 540 733 854 1002 1094 1214 1386 1547 1674 1750 1816 1869 1911 1947 1990 2034 2075 2021 2020 2017 2010 1996 1986 1975 1971 1962 1944 1920 1893 1860 1832 1811 1785 1754 1744 1725 1689 1668 1639 1647 1638 1611 1606 1627 1660
0 0 0 0 0 0 0 0 0 0 1 38 76 132 181 232 264 402 573 756 896 1028 1178 1307 1437 1591 1703 1812 1880 1944 1979 2017 2043 2075 2099 2080 2050 2068 2088 2089 2088 2069 2047 2015 1976 1937 1910 1884 1863 1854 1836 1828 1810 1785 1760 1753 1741 1707 1683 1670 1680 1712 1754
0 0 0 0 0 0 0 0 0 0 0 21 76 156 260 302 363 533 633 816 954 1094 1270 1356 1488 1589 1736 1844 1932 1998 2058 2104 2124 2131 2125 2143 2121 2104 2136 2159 2163 2148 2123 2072 2022 1982 1953 1936 1923 1918 1911 1891 1865 1846 1828 1807 1793 1778 1769 1777 1798 1832 1871
884 930 279 0 0 0 0 0 0 0 10 98 186 203 281 451 521 617 740 855 1010 1107 1245 1413 1510 1606 1732 1859 1954 2043 2111 2160 2184 2150 2142 2122 2154 2148 2178 2209 2228 2217 2184 2129 2082 2040 2014 2002 1972 1961 1946 1934 1924 1912 1916 1879 1854 1850 1865 1894 1911 1928 1947
1032 1186 1080 944 492 0 0 0 0 0 45 199 255 277 326 522 661 765 852 924 1031 1163 1262 1408 1536 1628 1742 1881 1982 2093 2163 2222 2264 2232 2215 2195 2196 2216 2239 2260 2278 2264 2228 2185 2138 2095 2074 2055 2035 2019 2006 1997 1981 1986 1982 1940 1922 1925 1937 1968 1979 1999 2014
1023 1111 1092 1020 1036 974 845 332 0 16 53 179 324 397 513 556 780 970 995 1064 1131 1211 1324 1414 1572 1668 1784 1888 1956 2109 2252 2301 2330 2352 2361 2290 2288 2311 2312 2320 2318 2316 2283 2248 2200 2162 2134 2106 2099 2088 2054 2033 2038 2044 2036 2010 1988 1995 2009 2021 2049 2056 2088
1233 1352 1515 1512 1326 1277 1261 1148 789 233 140 158 340 518 636 651 806 1033 1135 1208 1232 1299 1379 1456 1579 1684 1780 1939 1989 2134 2254 2328 2370 2407 2421 2408 2382 2372 2370 2362 2371 2364 2336 2303 2258 2222 2196 2173 2156 2132 2113 2098 2082 2091 2060 2041 2030 2034 2057 2080 2093 2119 2143
1442 1729 1926 2033 1965 1890 1690 1237 865 826 765 704 631 524 746 813 868 1046 1208 1305 1352 1372 1415 1484 1586 1669 1829 1965 2078 2176 2285 2362 2412 2448 2405 2416 2416 2414 2435 2422 2400 2393 2372 2358 2319 2288 2254 2262 2221 2200 2162 2152 2137 2135 2118 2096 2067 2066 2080 2100 2128 2147 2165
1302 1589 1933 2302 2491 2374 2306 1933 1508 1205 1289 1268 939 893 813 978 983 1015 1133 1277 1369 1440 1502 1532 1543 1616 1768 1944 2060 2208 2304 2327 2412 2487 2516 2502 2482 2492 2500 2494 2468 2436 2384 2400 2384 2355 2334 2335 2296 2267 2259 2236 2187 2177 2170 2140 2129 2125 2096 2102 2130 2144 2178
1338 1369 1529 1954 2469 2878 2845 2650 2386 2150 2058 1980 1609 1146 1097 1048 1120 1137 1224 1268 1338 1476 1555 1567 1591 1648 1732 1797 1978 2166 2290 2347 2432 2500 2515 2517 2510 2520 2548 2552 2536 2497 2463 2434 2431 2422 2432 2419 2386 2374 2336 2305 2255 2218 2208 2196 2184 2192 2166 2162 2176 2182 2230
1120 1086 1202 1404 1718 2066 2659 3088 3029 2815 2611 2326 2152 1783 1396 1242 1227 1233 1368 1452 1502 1516 1530 1575 1646 1683 1711 1760 1855 2040 2204 2311 2377 2437 2514 2550 2547 2539 2558 2576 2576 2566 2548 2518 2505 2516 2505 2473 2437 2415 2392 2345 2322 2286 2248 2228 2228 2233 2244 2261 2268 2268 2308
1153 1104 1132 1342 1495 1676 1940 2316 2788 3204 3207 2928 2603 2375 2174 1899 1756 1488 1345 1530 1607 1624 1614 1642 1694 1730 1751 1769 1811 1900 2073 2238 2360 2434 2506 2578 2604 2596 2607 2602 2596 2591 2579 2581 2576 2596 2561 2513 2510 2454 2417 2394 2402 2374 2324 2297 2282 2302 2324 2349 2352 2368 2447
948 952 1000 1123 1273 1398 1590 1787 1964 2244 2814 3328 3397 3092 2746 2670 2424 2268 2140 2038 1960 1896 1811 1778 1845 1837 1844 1866 1889 1907 1955 2063 2208 2344 2462 2574 2630 2665 2676 2671 2659 2641 2600 2578 2563 2566 2569 2560 2553 2518 2483 2444 2448 2430 2380 2348 2374 2396 2414 2416 2437 2502 2734
504 648 864 965 998 1223 1262 1532 1646 1796 1862 2083 2511 3222 3497 3422 3264 3004 2851 2719 2736 2672 2512 2398 2318 2247 2113 2098 1995 2018 1969 1989 2086 2222 2352 2491 2604 2666 2686 2664 2666 2669 2691 2650 2570 2543 2547 2556 2536 2526 2510 2474 2426 2441 2432 2415 2444 2460 2484 2528 2598 2785 2922
570 593 642 658 1025 1063 1234 1238 1491 1581 1617 1605 1929 1975 2121 2588 3194 3594 3522 3430 3287 3220 3094 2954 2876 2851 2833 2805 2803 2653 2566 2496 2364 2221 2278 2379 2480 2591 2639 2640 2622 2648 2600 2618 2652 2644 2614 2548 2511 2501 2508 2462 2436 2418 2431 2488 2488 2533 2618 2647 2900 3010 3048
616 712 676 698 796 924 1002 1168 1403 1697 1958 1893 2037 2064 2044 2019 2152 2232 2538 3066 3519 3642 3484 3403 3236 3247 3190 3184 3157 3105 3054 2987 2939 2844 2740 2618 2463 2570 2571 2630 2662 2648 2630 2612 2641 2626 2614 2646 2600 2559 2473 2429 2414 2408 2432 2479 2555 2632 2749 2956 3051 3090 3102
668 676 713 750 791 844 954 1054 1168 1617 2032 2005 2184 2226 2126 2125 2165 2156 2230 2220 2248 2494 3110 3561 3674 3706 3619 3508 3465 3510 3446 3360 3356 3249 3107 3047 2912 2788 2631 2485 2600 2605 2627 2650 2642 2590 2595 2577 2598 2624 2621 2602 2420 2346 2433 2501 2686 2854 2890 3064 3080 3079 3021
830 758 780 802 921 1003 1000 1020 1176 1690 1887 1805 1791 1827 1893 1962 1934 1928 1869 2011 2185 2290 2456 2681 3013 3258 3448 3511 3548 3566 3552 3496 3504 3455 3376 3362 3306 3229 3077 2915 2755 2554 2586 2622 2623 2595 2546 2498 2454 2355 2368 2479 2504 2470 2384 2614 2749 2804 2982 3009 3050 3053 3092
924 940 893 912 1058 1184 1203 1119 1146 1243 1252 1345 1425 1618 1746 1808 1828 1701 1537 1451 1458 1639 1944 2313 2575 2710 2934 3266 3438 3498 3470 3445 3429 3341 3255 3178 3059 2962 2900 2925 2946 2890 2873 2716 2575 2561 2550 2548 2393 2359 2334 2325 2228 2168 2152 2472 2475 2601 2653 2784 2899 3130 3090
1068 1101 1179 1250 1297 1384 1443 1402 1386 1416 1420 1447 1532 1488 1534 1624 1576 1507 1389 1293 1370 1515 1719 1896 2112 2315 2456 2623 2800 3019 3203 3286 3299 3297 3286 3167 2961 2764 2604 2560 2618 2603 2668 2778 2724 2636 2469 2425 2396 2414 2316 2361 2125 2084 2226 2351 2438 2431 2454 2516 2116 2381 2341
Wind_Speed
nan nan nan 5 4 7 9 8 7 6 7 7 8 9 11 11 10 10 10 10 10 10 12 13 12 11 10 9 9 9 10 11 11 10 10 9 9 10 11 11 11 11 12 11 10 11 11 14 13 10 8 10 12 11 10 10 9 9 11 13 14 15 nan
nan nan nan nan nan nan 9 10 9 7 7 7 8 11 12 13 13 12 11 12 12 13 14 15 15 13 12 11 10 11 11 12 13 12 12 12 12 11 11 12 12 12 13 12 11 12 14 15 15 11 9 10 11 11 10 9 10 10 11 13 14 nan nan
nan nan nan nan nan nan nan nan nan nan nan 8 10 13 14 15 15 14 12 11 12 12 12 13 14 13 12 11 11 11 12 13 13 14 14 14 14 13 13 14 13 13 13 13 12 12 14 17 16 14 11 11 11 10 9 9 9 10 11 13 14 nan nan
nan nan nan nan nan nan nan nan nan nan nan nan 10 13 14 14 15 13 12 12 12 12 12 11 11 10 10 11 11 11 12 13 13 14 14 15 16 16 16 15 16 16 16 13 12 13 14 17 18 16 13 12 12 9 8 8 8 10 11 12 13 15 15
nan nan nan nan nan nan nan nan nan nan nan nan 10 11 12 14 16 15 13 11 10 11 11 11 10 10 10 10 10 11 12 13 14 14 15 16 18 19 16 15 17 18 16 16 15 14 15 17 18 17 15 15 13 10 8 7 7 9 10 11 13 13 14
nan nan nan nan nan nan nan nan nan nan nan nan nan 10 11 14 16 16 15 12 9 7 7 7 7 8 9 10 10 11 12 13 14 15 16 17 19 18 16 16 18 19 19 18 16 14 15 16 19 19 18 16 14 11 8 8 7 7 9 10 11 12 14
nan nan nan nan nan nan nan nan nan nan nan nan nan nan 13 17 17 15 16 13 10 10 9 8 9 10 10 11 11 12 12 13 13 14 16 17 18 17 17 18 19 20 20 21 17 16 15 16 18 19 19 19 16 12 10 8 7 6 8 9 10 11 14
nan nan nan nan nan nan nan nan nan nan nan nan nan nan 16 17 16 16 16 13 12 10 8 8 9 10 12 13 13 14 13 12 12 13 15 15 17 16 17 18 19 21 23 20 18 17 15 15 17 19 20 20 17 13 11 9 7 7 7 8 9 10 12
nan nan nan nan nan nan nan nan nan nan nan nan nan nan nan 18 18 17 16 15 14 13 10 10 10 12 14 15 15 16 14 13 12 13 13 14 15 16 17 18 21 23 22 21 20 17 15 15 17 18 20 19 17 15 12 10 9 7 7 7 9 11 13
nan nan nan nan nan nan nan nan nan nan nan nan nan nan nan 18 18 17 15 15 16 14 12 11 11 13 15 15 15 16 16 15 13 14 13 13 13 14 17 19 22 24 22 22 21 18 16 16 16 17 18 19 18 15 13 12 10 8 7 7 9 12 14
nan nan nan nan nan nan nan nan nan nan nan nan nan nan nan 18 18 17 15 15 15 14 13 12 13 15 15 16 16 17 18 18 17 15 14 13 12 13 17 20 23 24 23 23 21 18 17 17 17 16 16 17 18 16 14 13 12 10 7 6 9 11 13
nan nan nan nan nan nan nan nan nan nan nan nan nan nan nan nan 18 17 15 14 14 13 15 14 15 16 17 16 16 17 19 20 19 18 16 15 15 15 15 18 21 24 25 24 21 19 18 17 16 15 14 15 17 17 15 14 13 10 8 8 10 12 12
nan nan nan nan nan nan nan nan nan nan nan nan nan nan nan nan 17 16 14 12 11 13 15 16 17 17 17 17 17 17 19 20 20 19 17 16 17 17 18 17 20 25 26 26 23 20 19 17 15 13 13 14 18 17 15 15 14 10 8 10 12 13 14
nan nan nan nan nan nan nan nan nan nan nan nan nan nan nan nan 15 14 13 10 10 12 14 16 18 17 16 16 15 16 19 19 19 20 19 18 18 19 21 21 20 22 25 25 22 19 18 17 15 13 13 15 17 16 16 16 14 10 9 12 14 14 15
nan nan nan nan nan nan nan nan nan nan nan nan nan nan nan nan 15 14 12 11 12 13 12 15 18 17 17 17 16 17 18 18 18 19 21 21 21 20 21 22 22 23 24 22 20 20 17 16 16 14 13 15 16 16 16 16 13 11 12 14 15 15 16
nan nan nan nan nan nan nan nan nan nan nan nan nan nan nan nan 17 17 15 14 14 13 13 17 17 17 17 18 18 18 19 19 19 21 23 24 24 23 22 22 22 23 23 23 22 22 21 19 17 15 15 16 16 16 16 15 13 11 15 17 16 17 17
nan nan nan nan nan nan nan nan nan nan nan nan nan nan nan nan 19 19 17 15 16 15 16 19 17 16 17 18 19 20 21 21 20 22 24 25 25 25 25 25 24 24 24 24 25 25 25 25 21 16 17 17 18 16 15 15 13 13 16 18 20 19 19
nan nan nan nan nan nan nan nan nan nan nan nan nan nan nan nan 20 22 19 18 16 16 20 19 17 16 15 16 18 21 21 20 21 22 23 25 26 27 27 27 26 26 25 25 26 25 27 27 24 20 18 18 17 16 15 15 12 15 17 19 21 21 20
nan nan nan nan nan nan nan nan nan nan nan nan nan nan nan 19 22 23 23 22 19 22 22 19 19 17 14 14 17 19 19 19 21 21 23 25 27 28 29 29 28 27 27 27 26 26 27 26 25 22 20 20 17 15 16 15 13 16 18 19 22 23 22
nan nan nan nan nan nan nan nan nan nan nan nan nan 9 10 16 19 21 24 25 28 29 23 20 18 18 16 16 17 18 20 21 21 22 24 26 29 30 30 29 28 28 28 27 26 26 25 25 25 23 22 21 18 17 18 15 15 17 18 20 22 24 23
nan nan nan nan nan nan nan nan nan nan nan nan nan 14 17 16 14 19 26 29 28 26 25 22 20 18 17 18 17 19 20 21 22 23 24 26 29 31 30 30 28 28 27 27 27 27 26 26 25 23 22 22 21 21 19 16 16 18 20 21 23 24 24
33 35 33 nan nan nan nan nan nan nan nan nan 21 20 17 15 18 21 22 25 24 23 22 21 19 18 19 19 20 20 21 22 22 24 25 26 27 29 29 30 29 28 27 26 25 25 24 24 24 23 23 24 24 22 19 17 19 21 22 22 23 26 24
34 34 34 33 31 nan nan nan nan nan nan 28 26 24 18 20 22 21 23 24 23 22 21 21 19 19 20 20 21 21 21 23 25 26 27 28 28 28 28 29 28 27 27 26 25 25 25 25 26 25 25 26 26 22 19 19 21 23 23 23 25 27 23
36 35 35 35 36 35 33 32 nan nan nan 32 30 27 26 26 24 24 24 25 27 26 24 22 18 20 21 22 24 23 22 24 28 28 29 30 29 29 28 28 28 28 29 27 26 26 26 26 26 26 26 26 25 23 21 20 24 24 25 25 27 28 24
38 37 36 37 39 40 37 35 35 34 35 36 34 33 32 29 28 26 25 27 27 26 25 21 20 23 23 23 27 28 25 26 30 32 32 31 30 30 30 29 28 29 31 28 26 26 28 27 26 27 27 26 25 25 23 24 27 27 27 28 28 27 24
39 40 41 41 44 42 39 40 41 42 40 39 38 39 37 34 31 29 28 27 26 25 24 22 22 23 22 26 30 31 30 30 33 35 35 34 35 35 32 30 29 30 31 29 27 28 30 29 28 29 28 28 28 29 28 28 30 30 30 30 30 29 27
40 40 43 47 48 46 48 48 48 48 48 44 40 41 40 39 36 33 33 32 30 25 24 24 25 26 28 31 32 32 32 33 35 36 35 37 40 41 37 32 29 30 32 31 31 30 31 31 31 31 30 31 31 31 32 32 32 34 33 33 32 31 30
46 44 46 46 51 51 49 51 53 53 52 50 48 43 42 42 40 37 38 36 31 27 27 31 33 32 33 36 36 35 34 35 35 36 36 37 41 42 39 37 35 35 35 35 34 32 32 32 32 33 33 33 33 33 34 35 34 41 37 36 34 34 31
51 53 53 53 57 58 55 56 57 55 54 52 50 50 46 43 42 40 39 36 29 30 35 35 35 37 38 38 37 37 36 36 37 37 37 38 40 41 43 47 45 40 39 38 37 36 35 33 33 35 36 36 35 35 36 38 39 43 41 37 38 37 33
50 52 54 55 56 57 59 59 58 58 57 55 55 53 53 50 44 42 39 34 37 40 39 37 38 40 39 38 37 38 38 38 38 39 40 41 42 43 46 51 51 49 45 42 41 41 40 38 37 38 38 39 39 39 39 41 44 44 44 42 39 40 38
51 52 54 54 55 57 59 60 60 60 60 60 59 56 57 54 54 51 46 45 44 42 42 43 44 44 43 42 41 41 40 40 41 42 43 44 46 46 46 48 51 51 51 52 49 45 43 41 42 41 42 42 42 43 45 47 47 48 44 44 42 42 43
52 51 51 53 55 57 58 59 60 61 61 61 61 59 58 59 58 57 50 47 48 49 47 46 47 46 44 44 44 43 44 44 43 44 44 45 47 47 47 48 50 50 50 52 53 51 48 46 46 46 47 45 45 48 49 51 52 50 49 46 46 46 48
55 55 55 55 54 53 54 56 59 61 62 62 61 59 59 60 58 57 55 54 53 53 52 50 45 44 44 42 41 42 44 43 44 45 45 47 48 49 49 49 51 51 51 52 54 54 51 50 50 49 48 48 49 51 54 54 56 56 54 52 52 52 53
53 54 53 51 51 50 50 54 57 58 59 58 56 55 55 55 56 55 55 54 53 51 50 49 46 42 39 39 39 41 43 44 43 45 47 48 50 51 52 53 54 55 54 53 53 55 55 54 51 48 48 49 53 55 60 65 66 61 58 56 55 56 57
54 54 53 54 52 51 51 52 55 56 56 54 51 52 51 52 51 50 51 49 48 46 49 48 47 46 44 43 43 42 44 45 46 47 48 50 50 51 54 56 57 57 56 55 56 56 56 56 56 54 54 57 60 65 67 67 62 56 56 58 59 61 62
58 56 55 55 54 52 51 52 54 57 54 51 49 50 50 51 50 50 50 50 50 50 51 50 50 50 51 52 53 53 52 51 50 49 48 49 51 51 52 53 53 54 56 56 54 53 54 60 62 65 70 73 70 67 67 62 60 67 65 63 65 67 69
62 61 59 58 58 56 53 51 51 53 53 51 49 50 51 51 51 51 50 50 51 51 52 51 51 50 51 52 54 55 56 56 56 57 56 55 54 52 51 53 55 57 52 51 59 63 64 64 66 69 72 76 74 67 62 64 69 70 71 71 71 75 76
65 64 62 60 59 57 54 51 50 50 50 49 49 52 52 53 51 50 50 50 50 52 54 54 53 52 52 52 52 54 56 56 57 58 59 58 57 57 57 56 55 56 63 60 67 69 71 73 73 68 70 77 77 71 71 74 76 76 76 74 73 76 77
Wind_Direction
nan nan nan 75 31 1 357 355 344 334 333 324 325 323 321 316 319 313 317 320 329 324 321 325 329 322 331 327 324 313 312 307 301 307 301 298 293 290 290 283 285 282 283 290 298 311 313 310 320 319 306 308 308 314 323 334 341 333 341 343 343 347 nan
nan nan nan nan nan nan 10 345 320 303 293 298 300 305 303 311 312 318 323 319 323 326 322 324 326 326 325 319 305 309 309 308 305 297 293 288 285 285 285 284 285 284 283 286 292 297 299 309 314 311 304 300 308 310 321 327 328 333 338 341 346 nan nan
nan nan nan nan nan nan nan nan nan nan nan 286 287 287 301 313 316 325 315 308 314 316 316 325 331 330 318 313 307 308 306 298 297 299 298 295 297 294 280 276 276 278 283 285 287 289 291 297 307 304 300 297 303 305 311 318 324 331 339 341 346 nan nan
nan nan nan nan nan nan nan nan nan nan nan nan 298 301 307 314 312 307 301 308 315 316 329 330 325 325 316 316 313 302 299 292 291 290 290 286 285 281 277 274 271 272 274 283 285 286 287 294 299 301 299 294 295 298 309 312 314 327 335 338 345 348 353
nan nan nan nan nan nan nan nan nan nan nan nan 309 301 303 306 300 290 290 301 315 330 341 335 322 326 318 319 302 293 294 289 281 275 274 274 275 275 279 281 276 277 278 275 277 283 288 292 295 295 295 290 293 293 289 296 311 321 329 337 344 345 354
nan nan nan nan nan nan nan nan nan nan nan nan nan 294 290 289 283 293 297 303 312 320 310 306 320 324 327 325 310 297 284 279 273 270 269 269 272 275 281 280 277 277 276 278 278 285 288 290 293 294 294 292 293 294 288 281 299 308 326 331 343 346 352
nan nan nan nan nan nan nan nan nan nan nan nan nan nan 275 275 286 294 291 299 310 314 319 329 340 332 328 314 315 309 303 291 280 277 268 268 271 275 278 275 275 275 274 272 278 281 284 288 293 296 293 289 286 294 285 294 296 304 316 328 339 349 351
nan nan nan nan nan nan nan nan nan nan nan nan nan nan 268 272 276 281 286 297 303 307 313 337 336 328 320 316 321 330 320 307 292 284 277 279 276 277 275 274 274 273 272 278 279 283 281 286 283 288 294 287 287 287 288 292 301 298 308 322 339 340 330
nan nan nan nan nan nan nan nan nan nan nan nan nan nan nan 276 279 284 296 301 297 309 334 336 332 316 310 322 331 338 332 323 314 302 299 295 283 279 274 270 268 269 273 275 275 276 278 279 281 286 293 292 288 286 287 292 292 298 316 337 346 338 332
nan nan nan nan nan nan nan nan nan nan nan nan nan nan nan 272 278 283 287 292 295 317 337 325 306 302 313 326 334 334 334 338 329 325 316 307 293 287 272 266 263 265 269 271 269 274 271 273 277 282 289 292 289 286 286 288 288 302 317 342 342 336 338
nan nan nan nan nan nan nan nan nan nan nan nan nan nan nan 277 280 284 287 288 299 314 320 305 293 301 316 324 332 333 337 343 339 339 337 331 308 291 272 264 260 261 266 266 268 270 269 267 271 279 285 289 290 285 284 288 293 305 312 328 325 325 330
nan nan nan nan nan nan nan nan nan nan nan nan nan nan nan nan 284 286 288 298 303 303 291 293 292 305 310 316 327 334 340 342 346 348 344 340 334 322 294 273 265 263 260 264 266 266 264 269 269 276 286 286 286 283 284 285 292 308 319 312 310 317 322
nan nan nan nan nan nan nan nan nan nan nan nan nan nan nan nan 286 287 289 299 294 280 281 288 293 301 309 316 328 334 342 342 348 343 339 336 334 327 320 302 276 266 264 264 262 263 259 263 271 273 277 279 279 280 281 285 291 300 307 304 305 314 325
nan nan nan nan nan nan nan nan nan nan nan nan nan nan nan nan 281 287 289 291 276 269 272 275 291 300 308 311 322 337 345 342 338 336 334 328 325 329 331 322 305 286 273 268 269 266 263 261 268 270 268 271 275 276 276 281 287 294 297 297 303 311 325
nan nan nan nan nan nan nan nan nan nan nan nan nan nan nan nan 275 272 269 266 264 270 285 288 294 303 310 313 327 341 340 328 321 325 329 328 324 326 329 328 318 302 289 281 275 267 271 269 265 272 270 266 268 270 271 278 285 284 290 296 305 311 324
nan nan nan nan nan nan nan nan nan nan nan nan nan nan nan nan 281 286 290 291 289 293 301 291 302 312 316 324 335 334 324 317 314 316 323 329 331 327 324 321 317 312 306 299 289 283 282 283 282 274 272 269 267 267 268 272 272 290 313 310 306 313 318
nan nan nan nan nan nan nan nan nan nan nan nan nan nan nan nan 288 286 289 288 291 301 300 299 307 317 325 336 334 320 311 311 313 311 319 326 327 327 324 319 313 314 314 309 304 303 300 300 299 292 271 269 265 265 264 266 269 303 305 319 325 315 316
nan nan nan nan nan nan nan nan nan nan nan nan nan nan nan nan 282 279 279 278 285 291 287 293 301 316 330 336 317 306 309 312 311 312 317 318 324 324 322 320 321 322 320 317 316 312 308 311 314 300 278 268 267 264 264 262 277 297 307 318 324 321 315
nan nan nan nan nan nan nan nan nan nan nan nan nan nan nan 304 293 293 292 285 286 273 275 289 297 304 317 315 303 304 308 310 313 316 314 316 316 314 314 320 326 329 329 329 323 316 317 318 313 302 286 276 274 268 263 257 275 292 306 314 319 323 318
nan nan nan nan nan nan nan nan nan nan nan nan nan 286 295 292 300 297 287 281 271 271 278 285 289 294 305 300 302 306 307 310 316 316 312 306 305 307 311 316 325 328 330 330 329 329 324 317 315 306 293 284 277 266 259 258 269 292 302 308 313 318 315
nan nan nan nan nan nan nan nan nan nan nan nan nan 249 248 257 270 264 260 263 273 280 286 292 292 292 294 294 295 293 296 306 313 312 305 301 301 302 307 311 315 322 324 326 331 333 328 318 313 306 296 285 274 261 257 252 273 287 298 303 309 313 310
219 216 212 nan nan nan nan nan nan nan nan nan 234 242 249 259 265 267 272 275 282 283 287 287 283 283 280 285 287 292 294 298 300 300 299 300 300 303 306 307 310 316 316 317 321 324 322 316 311 308 297 285 276 265 258 252 274 283 292 301 303 306 294
224 219 218 216 220 nan nan nan nan nan nan 243 247 247 242 238 248 255 258 266 274 278 278 275 276 277 281 288 290 289 289 289 289 290 293 296 300 306 307 306 304 303 302 310 315 317 319 318 314 306 296 286 279 273 260 250 266 283 289 295 300 288 285
226 225 222 220 224 226 224 225 nan nan nan 257 259 259 250 249 252 252 251 256 262 270 273 277 284 282 280 284 284 283 281 279 279 283 288 290 296 300 299 297 294 296 295 302 305 309 313 310 306 301 296 289 283 277 263 252 261 281 284 289 291 289 285
224 225 223 222 224 227 225 225 232 240 250 255 260 257 257 259 263 264 264 267 274 279 286 293 290 281 280 283 283 282 281 277 277 281 286 290 291 287 286 285 285 283 281 286 293 300 297 300 301 300 297 292 283 275 269 253 256 274 279 285 288 288 280
226 224 222 220 223 229 232 229 235 242 246 252 254 256 260 264 267 267 270 274 275 278 288 294 288 280 277 273 273 275 277 277 283 287 292 298 296 291 289 278 270 273 275 275 279 285 288 290 295 302 300 290 280 270 268 261 255 265 281 284 286 293 281
230 227 223 220 220 223 231 233 234 235 236 236 246 255 258 263 267 268 270 273 275 284 294 293 279 268 265 268 272 276 282 282 286 293 298 302 302 300 296 286 279 276 276 274 269 271 276 285 289 292 293 289 282 274 270 264 262 263 280 282 286 291 286
235 235 230 226 224 224 229 234 235 234 232 232 233 243 256 263 265 265 264 270 281 291 289 271 264 263 265 269 272 276 282 288 291 295 298 301 298 297 300 293 281 271 272 271 270 271 272 276 281 284 284 284 285 281 275 271 274 263 275 283 285 288 293
231 230 227 224 223 224 227 230 233 235 236 234 236 238 243 256 265 266 270 274 281 277 269 268 267 268 269 272 276 282 288 291 295 293 290 292 296 298 300 298 294 284 272 269 269 270 270 270 271 274 277 278 280 280 277 273 270 273 271 280 283 287 288
233 233 232 231 228 227 229 232 232 233 234 236 237 239 242 246 253 260 268 272 261 264 268 269 269 269 272 275 279 283 286 290 292 291 290 292 293 295 298 299 302 300 293 286 278 272 271 269 268 268 272 276 277 276 275 272 268 267 274 273 281 282 287
233 232 234 234 233 232 233 234 235 236 235 235 236 238 240 244 249 250 253 251 252 262 268 272 273 276 278 281 282 283 284 285 285 288 290 291 292 292 294 295 295 298 300 299 293 286 282 280 277 275 273 273 275 274 271 269 266 260 265 274 273 278 280
235 236 237 238 237 236 237 237 238 239 239 237 237 238 240 243 246 248 248 248 251 255 260 267 272 274 278 279 280 282 281 282 283 285 287 288 288 291 291 290 289 290 290 292 295 297 294 288 283 280 275 273 272 270 269 268 264 260 258 259 265 267 274
234 232 232 232 234 238 239 239 240 240 240 240 240 242 242 243 246 249 251 251 252 254 256 260 266 271 275 277 278 278 278 282 282 283 285 287 287 288 287 285 284 285 285 287 290 290 289 288 288 287 283 278 272 270 268 265 261 259 255 253 255 257 262
238 238 236 234 232 232 235 237 240 242 243 244 244 245 246 248 248 247 247 250 253 256 259 263 267 271 271 274 275 277 279 281 285 286 283 285 285 285 284 283 284 285 286 287 287 287 286 284 285 287 284 277 272 269 265 260 257 258 258 257 256 258 260
244 245 242 238 234 234 236 237 239 240 241 241 242 244 245 245 247 246 247 248 250 254 258 261 262 264 264 267 270 271 272 276 279 281 282 282 282 283 284 285 285 285 285 286 284 284 282 280 277 273 265 262 264 263 259 259 260 258 258 259 259 259 259
246 247 246 245 244 243 242 241 241 241 241 241 241 242 242 243 243 244 246 247 250 253 255 256 258 258 258 258 259 259 260 260 261 263 267 273 278 281 281 278 279 284 287 286 288 289 288 282 277 275 270 267 263 263 265 267 264 262 259 259 261 260 260
246 247 247 246 247 248 249 246 242 242 242 243 245 246 247 247 246 248 250 252 255 257 258 259 260 260 258 257 256 256 257 257 258 260 263 264 266 269 273 274 268 262 263 274 280 282 282 282 280 282 283 279 274 276 282 273 273 273 268 265 262 260 258
243 245 246 246 249 252 253 251 247 243 242 243 247 251 253 254 254 254 254 256 259 261 263 263 265 264 264 263 263 261 261 262 264 264 265 265 266 266 266 266 268 266 258 261 276 275 276 278 278 278 276 273 271 269 266 272 275 273 269 264 261 259 259